Location: Unspecified
(0.0000°N, 0.0000°E)
Time: 09:05:27
(UTC+00:00)

deb r/b Ablestar - Pass Details

Date: 16 February 2026
Orbit: 888 x 1147 km, 67.2° (Epoch: 14 March)

Event Time Altitude Azimuth Distance (km) Brightness Sun altitude
Exits shadow 03:00:35 - 49° (NE) 3,090 ? -46.9°
Reaches altitude 10° 03:01:41 10° 57° (ENE) 2,991 ? -46.6°
Maximum altitude 03:03:17 11° 71° (ENE) 2,944 ? -46.3°
Drops below altitude 10° 03:04:53 10° 84° (E) 3,015 ? -45.9°
Sets 03:10:27 0° 118° (ESE) 3,999 ? -44.6°
